TimeCST,TemperatureF,Dew PointF,Humidity,Sea Level PressureIn,VisibilityMPH,Wind Direction,Wind SpeedMPH,Gust SpeedMPH,PrecipitationIn,Events,Conditions,WindDirDegrees,DateUTC
12:24 AM,53.6,51.8,94,29.99,3.0,ENE,12.7,-,0.00,,Overcast,70,2013-01-10 06:24:00
12:34 AM,53.6,51.8,94,29.99,2.5,ENE,12.7,-,0.00,,Overcast,70,2013-01-10 06:34:00
12:45 AM,53.6,51.8,94,29.98,3.0,ENE,13.8,-,0.00,,Overcast,70,2013-01-10 06:45:00
12:52 AM,53.1,52.0,96,29.97,3.0,ENE,13.8,-,0.00,,Overcast,70,2013-01-10 06:52:00
1:16 AM,53.6,51.8,94,29.96,2.0,East,16.1,23.0,0.00,Rain,Light Rain,80,2013-01-10 07:16:00
1:41 AM,53.6,51.8,94,29.96,3.0,East,15.0,-,0.03,Rain,Light Rain,80,2013-01-10 07:41:00
1:49 AM,53.6,51.8,94,29.96,3.0,East,15.0,-,0.05,Rain,Rain,80,2013-01-10 07:49:00
1:52 AM,53.1,52.0,96,29.96,3.0,East,15.0,-,0.05,Rain,Light Rain,90,2013-01-10 07:52:00
2:27 AM,53.6,51.8,94,29.97,2.5,ESE,10.4,-,0.05,Rain,Light Rain,120,2013-01-10 08:27:00
2:37 AM,51.8,51.8,100,29.97,4.0,ESE,11.5,-,0.06,Rain,Light Rain,110,2013-01-10 08:37:00
2:52 AM,52.0,52.0,100,29.95,3.0,ESE,9.2,-,0.06,Rain,Light Rain,110,2013-01-10 08:52:00
3:10 AM,51.8,51.8,100,29.95,2.5,ESE,8.1,-,0.00,Rain,Light Rain,120,2013-01-10 09:10:00
3:39 AM,51.8,51.8,100,29.94,3.0,ESE,6.9,-,0.02,Rain,Light Rain,120,2013-01-10 09:39:00
3:52 AM,52.0,52.0,100,29.94,4.0,ESE,5.8,-,0.02,Rain,Light Rain,110,2013-01-10 09:52:00
4:52 AM,53.1,52.0,96,29.91,10.0,ESE,4.6,-,0.00,Rain,Light Rain,120,2013-01-10 10:52:00
5:52 AM,51.8,51.8,100,29.89,6.0,East,4.6,-,N/A,,Overcast,100,2013-01-10 11:52:00
6:14 AM,51.8,51.8,100,29.89,8.0,ESE,3.5,-,N/A,,Overcast,110,2013-01-10 12:14:00
6:52 AM,52.0,52.0,100,29.90,8.0,SE,6.9,-,0.00,,Overcast,130,2013-01-10 12:52:00
7:30 AM,51.8,51.8,100,29.90,1.8,SE,6.9,-,N/A,,Overcast,140,2013-01-10 13:30:00
7:47 AM,51.8,51.8,100,29.90,3.0,SSE,6.9,-,N/A,,Overcast,160,2013-01-10 13:47:00
7:52 AM,52.0,52.0,100,29.89,4.0,SSE,9.2,-,N/A,,Overcast,160,2013-01-10 13:52:00
8:07 AM,51.8,51.8,100,29.90,9.0,South,11.5,-,0.00,Rain,Light Rain,190,2013-01-10 14:07:00
8:52 AM,51.1,48.9,92,29.88,10.0,SSW,10.4,-,0.00,,Overcast,210,2013-01-10 14:52:00
9:52 AM,50.0,48.9,96,29.89,10.0,SSW,13.8,-,N/A,,Overcast,200,2013-01-10 15:52:00
9:59 AM,50.0,48.2,94,29.90,10.0,SSW,12.7,-,N/A,,Overcast,200,2013-01-10 15:59:00
10:52 AM,50.0,48.9,96,29.88,10.0,SSW,11.5,-,N/A,,Overcast,200,2013-01-10 16:52:00
11:52 AM,50.0,48.9,96,29.88,10.0,SW,18.4,24.2,N/A,,Overcast,220,2013-01-10 17:52:00
12:29 PM,50.0,48.2,94,29.88,8.0,WSW,19.6,26.5,N/A,,Light Drizzle,240,2013-01-10 18:29:00
12:52 PM,51.8,48.2,88,29.87,10.0,WSW,15.0,23.0,N/A,,Overcast,240,2013-01-10 18:52:00
1:52 PM,53.6,48.2,82,29.85,10.0,West,11.5,-,N/A,,Mostly Cloudy,260,2013-01-10 19:52:00
2:52 PM,55.0,48.0,77,29.85,10.0,West,11.5,-,N/A,,Mostly Cloudy,270,2013-01-10 20:52:00
3:33 PM,53.6,46.4,77,29.86,10.0,West,9.2,-,N/A,,Mostly Cloudy,260,2013-01-10 21:33:00
3:52 PM,55.0,46.9,74,29.85,10.0,WSW,10.4,-,N/A,,Scattered Clouds,240,2013-01-10 21:52:00
4:07 PM,55.4,48.2,77,29.86,10.0,SW,11.5,-,N/A,,Mostly Cloudy,230,2013-01-10 22:07:00
4:52 PM,54.0,46.9,77,29.88,10.0,SW,12.7,-,N/A,,Mostly Cloudy,220,2013-01-10 22:52:00
5:52 PM,53.1,46.9,80,29.88,10.0,SSW,3.5,-,N/A,,Overcast,200,2013-01-10 23:52:00
6:52 PM,48.9,46.0,90,29.88,10.0,SSE,5.8,-,N/A,,Mostly Cloudy,160,2013-01-11 00:52:00
7:02 PM,48.2,46.4,93,29.89,10.0,South,8.1,-,N/A,,Mostly Cloudy,170,2013-01-11 01:02:00
7:52 PM,48.9,46.0,90,29.88,10.0,South,10.4,-,N/A,,Scattered Clouds,190,2013-01-11 01:52:00
8:52 PM,48.0,45.0,89,29.86,10.0,South,8.1,-,N/A,,Partly Cloudy,170,2013-01-11 02:52:00
9:52 PM,48.9,45.0,86,29.88,10.0,South,11.5,-,N/A,,Clear,180,2013-01-11 03:52:00
10:52 PM,48.0,45.0,89,29.87,10.0,South,12.7,-,N/A,,Clear,170,2013-01-11 04:52:00